Location: Ladrillo (historical)
(32.8195°N, 117.2231°W)
Time: 02:48:18
(UTC+00:00)

ERS-2 - Pass Details

Date: 29 October 2020
Orbit: 493 x 497 km, 98.6° (Epoch: 26 November)

Event Time Altitude Azimuth Distance (km) Brightness Sun altitude
Rises 12:02:19 0° 148° (SSE) 2,564 6.2 -26.2°
Reaches altitude 10° 12:04:29 10° 139° (SE) 1,685 5.3 -25.8°
Maximum altitude 12:07:48 34° 73° (ENE) 828 3.7 -25.1°
Enters shadow 12:10:32 14° 11° (NNE) 1,478 4.6 -24.5°
